User: anonymous   Login
Location: Vancouver
(49.2500°N, 123.1330°W)
Time: 01:55:12
(UTC-08:00)
Language:

Cosmos 1939 Rocket - Orbit

View from above orbital plane
View from above orbital plane
View from above satellite
View from above satellite

Ground track
Ground track

The orbit data is extracted from the following two-line orbital elements,

1 19046U 88032B   16345.81743099  .00001148  00000-0  90597-4 0  9999
2 19046  97.5591  31.8811 0039802 249.3320 110.3636 15.02104797544363
Epoch (UTC): 10 December 2016 19:37:06
Eccentricity: 0.0039802
inclination: 97.5591°
perigee height: 533 km
apogee height: 588 km
right ascension of ascending node: 31.8811°
argument of perigee: 249.3320°
revolutions per day: 15.02104797
mean anomaly at epoch: 110.3636°
orbit number at epoch: 54436

The dashed part of the orbit path shows where the satellite is in the earth's shadow,  

DLR